AYN7055 UACC-UAAA

Flight info

Callsign AYN7055
Flight time N/A
Altitude 37000
Route BEDKA1B BEDKA DCT KRG W333 ETEDA ETEDA1P
Aircraft A320/M-SDE3FGHIRWY/LB1

Departure

Time 2026-04-24 15:36
Airport Nursultan Nazarbayev International Airport (UACC)

Arrival

Time N/A
Airport Almaty International Airport (UAAA)
Time Latitude Longitude Altitude Speed Heading
2026-04-24 15:28 51.02602 71.46283 1164 ft 0 kts 43°
2026-04-24 15:30 51.02609 71.46292 1162 ft 2 kts 43°
2026-04-24 15:31 51.02655 71.46487 1164 ft 7 kts 45°
2026-04-24 15:32 51.02681 71.46832 1164 ft 11 kts 34°
2026-04-24 15:33 51.02966 71.47266 1164 ft 18 kts 44°
2026-04-24 15:33 51.03270 71.47740 1164 ft 23 kts 45°
2026-04-24 15:34 51.03432 71.48091 1164 ft 21 kts 92°
2026-04-24 15:35 51.03284 71.48228 1165 ft 15 kts 224°
2026-04-24 15:35 51.02825 71.47504 1165 ft 103 kts 224°
2026-04-24 15:35 51.02192 71.46521 1165 ft 149 kts 224°
2026-04-24 15:36 51.01367 71.45219 1307 ft 175 kts 226°
2026-04-24 15:36 50.99843 71.42389 2725 ft 165 kts 229°
2026-04-24 15:36 50.99054 71.41062 3210 ft 174 kts 222°
2026-04-24 15:37 50.98097 71.39681 3433 ft 196 kts 221°
2026-04-24 15:37 50.97018 71.38141 3673 ft 221 kts 221°
2026-04-24 15:37 50.95816 71.36397 4044 ft 245 kts 222°
2026-04-24 15:37 50.94542 71.34507 4749 ft 255 kts 223°
2026-04-24 15:38 50.93036 71.33009 5598 ft 261 kts 197°
2026-04-24 15:38 50.91206 71.33096 6434 ft 274 kts 164°
2026-04-24 15:38 50.89562 71.34732 7236 ft 286 kts 142°
2026-04-24 15:38 50.88184 71.37045 8069 ft 291 kts 134°
2026-04-24 15:39 50.86924 71.39524 8870 ft 294 kts 133°
2026-04-24 15:39 50.85637 71.42057 9674 ft 296 kts 135°
2026-04-24 15:39 50.84207 71.44413 10345 ft 301 kts 140°
2026-04-24 15:39 50.82612 71.46759 10555 ft 323 kts 143°
2026-04-24 15:40 50.80862 71.49158 10843 ft 339 kts 144°
2026-04-24 15:40 50.79039 71.51585 11455 ft 344 kts 144°
2026-04-24 15:40 50.77197 71.54018 12128 ft 347 kts 144°
2026-04-24 15:40 50.75331 71.56477 12811 ft 349 kts 144°
2026-04-24 15:41 50.73488 71.58911 13496 ft 351 kts 144°
2026-04-24 15:41 50.71613 71.61395 14150 ft 354 kts 143°
2026-04-24 15:41 50.69713 71.63918 14732 ft 357 kts 143°
2026-04-24 15:41 50.67803 71.66455 15296 ft 360 kts 143°
2026-04-24 15:42 50.65871 71.69019 15854 ft 364 kts 143°
2026-04-24 15:42 50.63921 71.71604 16419 ft 367 kts 143°
2026-04-24 15:42 50.61957 71.74211 16969 ft 370 kts 142°
2026-04-24 15:42 50.59976 71.76837 17526 ft 373 kts 142°
2026-04-24 15:43 50.57977 71.79477 18086 ft 377 kts 142°
2026-04-24 15:43 50.55964 71.82130 18612 ft 380 kts 142°
2026-04-24 15:43 50.53927 71.84811 19109 ft 383 kts 142°
2026-04-24 15:43 50.51899 71.87476 19611 ft 386 kts 142°
2026-04-24 15:44 50.49824 71.90202 20101 ft 389 kts 142°
2026-04-24 15:44 50.47737 71.92938 20590 ft 392 kts 142°
2026-04-24 15:44 50.45632 71.95690 21061 ft 395 kts 141°
2026-04-24 15:44 50.43507 71.98465 21518 ft 398 kts 141°
2026-04-24 15:45 50.41396 72.01227 21973 ft 401 kts 141°
2026-04-24 15:45 50.39219 72.04078 22418 ft 404 kts 141°
2026-04-24 15:45 50.37077 72.06882 22855 ft 407 kts 141°
2026-04-24 15:45 50.34895 72.09732 23295 ft 410 kts 141°
2026-04-24 15:46 50.32691 72.12605 23710 ft 413 kts 141°
2026-04-24 15:46 50.30461 72.15501 24079 ft 416 kts 141°
2026-04-24 15:46 50.28225 72.18399 24455 ft 418 kts 141°
2026-04-24 15:46 50.26000 72.21276 24833 ft 420 kts 141°
2026-04-24 15:47 50.23739 72.24205 25201 ft 422 kts 140°
2026-04-24 15:47 50.21644 72.27461 25552 ft 426 kts 131°
2026-04-24 15:47 50.19849 72.31160 25929 ft 428 kts 127°
2026-04-24 15:47 50.18081 72.34930 26291 ft 430 kts 127°
2026-04-24 15:48 50.16301 72.38704 26648 ft 433 kts 127°
2026-04-24 15:48 50.14527 72.42453 26998 ft 435 kts 127°
2026-04-24 15:48 50.12721 72.46257 27354 ft 437 kts 128°
2026-04-24 15:48 50.10899 72.50084 27707 ft 439 kts 128°
2026-04-24 15:49 50.09094 72.53874 28070 ft 441 kts 128°
2026-04-24 15:49 50.07256 72.57732 28428 ft 444 kts 128°
2026-04-24 15:49 50.05407 72.61613 28771 ft 446 kts 128°
2026-04-24 15:49 50.03556 72.65494 29106 ft 448 kts 128°
2026-04-24 15:50 50.01689 72.69405 29443 ft 450 kts 128°
2026-04-24 15:50 49.99819 72.73302 29893 ft 449 kts 128°
2026-04-24 15:50 49.97969 72.77145 30328 ft 448 kts 128°
2026-04-24 15:50 49.96099 72.81030 30730 ft 448 kts 128°
2026-04-24 15:51 49.94231 72.84909 31138 ft 447 kts 128°
2026-04-24 15:51 49.92365 72.88784 31544 ft 446 kts 128°
2026-04-24 15:51 49.90507 72.92639 31957 ft 446 kts 129°
2026-04-24 15:51 49.88666 72.96442 32358 ft 445 kts 129°
2026-04-24 15:52 49.86801 73.00296 32779 ft 445 kts 129°
2026-04-24 15:52 49.84951 73.04121 33187 ft 444 kts 129°
2026-04-24 15:52 49.83094 73.07955 33598 ft 443 kts 129°
2026-04-24 15:52 49.81240 73.11773 34016 ft 443 kts 129°
2026-04-24 15:53 49.79389 73.15575 34355 ft 442 kts 129°
2026-04-24 15:53 49.77548 73.19351 34640 ft 443 kts 130°
2026-04-24 15:53 49.75687 73.23157 34916 ft 444 kts 130°
2026-04-24 15:53 49.73818 73.26971 35182 ft 444 kts 130°
2026-04-24 15:54 49.71949 73.30785 35429 ft 445 kts 130°
2026-04-24 15:54 49.69907 73.34343 35682 ft 441 kts 140°
2026-04-24 15:54 49.67525 73.37321 35927 ft 438 kts 150°
2026-04-24 15:54 49.64885 73.39643 36167 ft 434 kts 159°
2026-04-24 15:55 49.62129 73.41362 36398 ft 432 kts 162°
2026-04-24 15:55 49.59320 73.43047 36633 ft 433 kts 162°
2026-04-24 15:55 49.56511 73.44742 36864 ft 434 kts 162°
2026-04-24 15:55 49.53697 73.46443 37039 ft 435 kts 162°
2026-04-24 15:56 49.47998 73.49881 37072 ft 444 kts 162°
2026-04-24 15:56 49.42226 73.53344 37069 ft 446 kts 162°
2026-04-24 15:57 49.36438 73.56809 37065 ft 446 kts 162°
2026-04-24 15:57 49.30642 73.60279 37067 ft 447 kts 162°
2026-04-24 15:58 49.24884 73.63705 37067 ft 447 kts 162°
2026-04-24 15:58 49.19068 73.67153 37070 ft 447 kts 163°
2026-04-24 15:59 49.13253 73.70598 37070 ft 447 kts 163°
2026-04-24 15:59 49.07437 73.74032 37074 ft 448 kts 163°
2026-04-24 16:00 49.01658 73.77432 37077 ft 448 kts 163°
2026-04-24 16:00 48.95837 73.80854 37081 ft 448 kts 163°
2026-04-24 16:01 48.90014 73.84265 37082 ft 448 kts 163°
2026-04-24 16:01 48.84183 73.87670 37080 ft 448 kts 163°
2026-04-24 16:02 48.78388 73.91032 37080 ft 448 kts 163°
2026-04-24 16:02 48.73501 73.93857 37081 ft 448 kts 163°
2026-04-24 16:03 48.67710 73.97198 37082 ft 448 kts 163°
2026-04-24 16:03 48.61864 74.00578 37082 ft 449 kts 163°
2026-04-24 16:04 48.56026 74.03944 37090 ft 449 kts 163°
2026-04-24 16:04 48.50187 74.07300 37091 ft 448 kts 163°
2026-04-24 16:05 48.41469 74.12291 37094 ft 449 kts 163°
2026-04-24 16:06 48.32701 74.17293 37098 ft 449 kts 163°
2026-04-24 16:07 48.23907 74.22272 37099 ft 450 kts 164°
2026-04-24 16:07 48.15160 74.27224 37099 ft 449 kts 164°
2026-04-24 16:08 48.06388 74.32214 37110 ft 450 kts 163°
2026-04-24 16:09 47.97606 74.37245 37114 ft 450 kts 163°
2026-04-24 16:09 47.91741 74.40583 37115 ft 451 kts 164°
2026-04-24 16:11 47.77106 74.48860 37121 ft 451 kts 164°
2026-04-24 16:11 47.71233 74.52159 37124 ft 450 kts 164°
2026-04-24 16:12 47.62464 74.57098 37119 ft 450 kts 164°
2026-04-24 16:13 47.53651 74.62029 37124 ft 450 kts 164°
2026-04-24 16:14 47.41946 74.68616 37122 ft 450 kts 164°
2026-04-24 16:14 47.33184 74.73542 37121 ft 450 kts 165°
2026-04-24 16:15 47.24411 74.78424 37116 ft 450 kts 165°
2026-04-24 16:16 47.15620 74.83307 37116 ft 450 kts 165°
2026-04-24 16:17 47.00971 74.91413 37115 ft 450 kts 165°
2026-04-24 16:18 46.89232 74.97872 37112 ft 449 kts 165°
2026-04-24 16:19 46.80569 75.03131 37111 ft 452 kts 161°
2026-04-24 16:20 46.71943 75.08775 37116 ft 451 kts 162°
2026-04-24 16:20 46.63324 75.14235 37115 ft 451 kts 162°
2026-04-24 16:21 46.54674 75.19648 37115 ft 451 kts 163°
2026-04-24 16:22 46.48955 75.23233 37117 ft 450 kts 162°
2026-04-24 16:22 46.40317 75.28646 37117 ft 450 kts 163°
2026-04-24 16:23 46.34588 75.32220 37112 ft 449 kts 163°
2026-04-24 16:24 46.25951 75.37597 37119 ft 449 kts 163°
2026-04-24 16:24 46.20227 75.41152 37113 ft 449 kts 163°
2026-04-24 16:25 46.14476 75.44738 37114 ft 449 kts 163°
2026-04-24 16:25 46.08735 75.48320 37111 ft 449 kts 163°
2026-04-24 16:26 46.00148 75.53658 37091 ft 449 kts 163°
2026-04-24 16:27 45.91551 75.58978 37101 ft 449 kts 163°
2026-04-24 16:27 45.85804 75.62535 37105 ft 449 kts 163°
2026-04-24 16:28 45.80078 75.66066 37111 ft 449 kts 163°
2026-04-24 16:28 45.71452 75.71341 37113 ft 449 kts 163°
2026-04-24 16:29 45.65696 75.74865 37114 ft 449 kts 163°
2026-04-24 16:30 45.54234 75.81873 37110 ft 448 kts 164°
2026-04-24 16:30 45.48527 75.85356 37107 ft 448 kts 164°
2026-04-24 16:31 45.42791 75.88840 37111 ft 447 kts 164°
2026-04-24 16:31 45.37067 75.92307 37107 ft 447 kts 164°
2026-04-24 16:32 45.31351 75.95766 37102 ft 446 kts 164°
2026-04-24 16:32 45.25665 75.99197 37097 ft 445 kts 165°
2026-04-24 16:33 45.19941 76.02639 37102 ft 445 kts 165°
2026-04-24 16:33 45.14276 76.06042 37107 ft 444 kts 165°
2026-04-24 16:34 45.08575 76.09455 37097 ft 444 kts 165°
2026-04-24 16:34 45.02871 76.12860 37103 ft 444 kts 165°
2026-04-24 16:35 44.97179 76.16258 37104 ft 444 kts 165°
2026-04-24 16:35 44.91525 76.19632 37106 ft 443 kts 165°
2026-04-24 16:36 44.85837 76.23027 37107 ft 443 kts 165°
2026-04-24 16:36 44.80149 76.26394 37105 ft 442 kts 165°
2026-04-24 16:37 44.74506 76.29718 37041 ft 443 kts 166°
2026-04-24 16:37 44.72572 76.30858 36508 ft 448 kts 165°
2026-04-24 16:37 44.68696 76.33139 35218 ft 459 kts 165°
2026-04-24 16:38 44.65754 76.34882 34654 ft 456 kts 165°
2026-04-24 16:38 44.62813 76.36619 34032 ft 456 kts 166°
2026-04-24 16:38 44.59937 76.38321 33459 ft 452 kts 166°
2026-04-24 16:38 44.57031 76.40035 32668 ft 453 kts 166°
2026-04-24 16:39 44.54112 76.41750 31973 ft 453 kts 165°
2026-04-24 16:39 44.51216 76.43452 31452 ft 448 kts 165°
2026-04-24 16:39 44.48335 76.45144 30904 ft 445 kts 165°
2026-04-24 16:39 44.45530 76.46787 30375 ft 441 kts 165°
2026-04-24 16:40 44.42701 76.48438 29789 ft 438 kts 165°
2026-04-24 16:40 44.39874 76.49965 29260 ft 427 kts 172°
2026-04-24 16:40 44.37046 76.50709 28751 ft 409 kts 184°
2026-04-24 16:40 44.34261 76.50627 28277 ft 393 kts 194°
2026-04-24 16:41 44.31637 76.49798 27808 ft 379 kts 205°
2026-04-24 16:41 44.29255 76.48340 27362 ft 367 kts 214°
2026-04-24 16:41 44.27161 76.46379 26924 ft 358 kts 221°
2026-04-24 16:41 44.25206 76.44337 26519 ft 354 kts 221°
2026-04-24 16:42 44.23242 76.42292 26117 ft 350 kts 221°
2026-04-24 16:42 44.21293 76.40267 25721 ft 347 kts 220°
2026-04-24 16:42 44.19359 76.38263 25339 ft 344 kts 220°
2026-04-24 16:42 44.17443 76.36282 24956 ft 341 kts 220°
2026-04-24 16:43 44.15545 76.34323 24587 ft 338 kts 220°
2026-04-24 16:43 44.13664 76.32383 24218 ft 335 kts 220°
2026-04-24 16:43 44.11798 76.30456 23845 ft 332 kts 220°
2026-04-24 16:43 44.09951 76.28548 23441 ft 329 kts 220°
2026-04-24 16:44 44.08152 76.26689 23069 ft 324 kts 220°
2026-04-24 16:44 44.06349 76.24826 22695 ft 320 kts 220°
2026-04-24 16:44 44.04538 76.23052 22326 ft 319 kts 214°
2026-04-24 16:44 44.02512 76.21741 21945 ft 322 kts 203°
2026-04-24 16:45 44.00315 76.21027 21499 ft 328 kts 192°
2026-04-24 16:45 43.98013 76.20965 21006 ft 335 kts 180°
2026-04-24 16:45 43.95701 76.21549 20502 ft 341 kts 173°
2026-04-24 16:45 43.93372 76.22044 19984 ft 335 kts 184°
2026-04-24 16:46 43.91110 76.21703 19509 ft 328 kts 199°
2026-04-24 16:46 43.89004 76.20534 19144 ft 326 kts 213°
2026-04-24 16:46 43.87185 76.18616 19086 ft 331 kts 227°
2026-04-24 16:46 43.85772 76.16097 19094 ft 332 kts 241°
2026-04-24 16:47 43.84761 76.13209 19101 ft 333 kts 246°
2026-04-24 16:47 43.83743 76.10374 19100 ft 333 kts 239°
2026-04-24 16:47 43.82338 76.07773 19097 ft 335 kts 229°
2026-04-24 16:47 43.80648 76.05588 19098 ft 336 kts 224°
2026-04-24 16:48 43.78893 76.03440 19097 ft 336 kts 224°
2026-04-24 16:48 43.77145 76.01299 19100 ft 336 kts 224°
2026-04-24 16:48 43.75355 75.99209 19099 ft 338 kts 218°
2026-04-24 16:48 43.73308 75.97569 19097 ft 341 kts 207°
2026-04-24 16:49 43.71822 75.96807 19100 ft 344 kts 201°
2026-04-24 16:49 43.69446 75.96252 19097 ft 351 kts 185°
2026-04-24 16:49 43.66998 75.96746 19101 ft 361 kts 166°
2026-04-24 16:49 43.64783 75.98382 19071 ft 372 kts 146°
2026-04-24 16:50 43.63524 76.00089 18681 ft 382 kts 130°
2026-04-24 16:50 43.62206 76.04593 18003 ft 388 kts 99°
2026-04-24 16:50 43.61915 76.08283 17563 ft 384 kts 97°
2026-04-24 16:50 43.61646 76.11933 17135 ft 379 kts 97°
2026-04-24 16:51 43.61371 76.15542 16672 ft 376 kts 98°
2026-04-24 16:51 43.61089 76.19117 16214 ft 371 kts 98°
2026-04-24 16:51 43.60810 76.22614 15485 ft 364 kts 98°
2026-04-24 16:51 43.60444 76.26025 14791 ft 354 kts 108°
2026-04-24 16:52 43.59516 76.29030 14500 ft 341 kts 124°
2026-04-24 16:52 43.58045 76.31602 14077 ft 335 kts 140°
2026-04-24 16:52 43.56206 76.33428 13648 ft 327 kts 155°
2026-04-24 16:52 43.54086 76.34501 13231 ft 324 kts 169°
2026-04-24 16:53 43.51892 76.35180 12830 ft 323 kts 169°
2026-04-24 16:53 43.49712 76.35912 12421 ft 323 kts 164°
2026-04-24 16:53 43.47660 76.37177 12016 ft 325 kts 151°
2026-04-24 16:53 43.45814 76.39067 11243 ft 337 kts 137°
2026-04-24 16:54 43.44153 76.41301 11043 ft 328 kts 137°
2026-04-24 16:54 43.42531 76.43451 10908 ft 316 kts 137°
2026-04-24 16:54 43.40969 76.45506 10481 ft 307 kts 137°
2026-04-24 16:54 43.39429 76.47523 9902 ft 304 kts 137°
2026-04-24 16:55 43.37910 76.49506 9466 ft 299 kts 137°
2026-04-24 16:55 43.36423 76.51446 9105 ft 297 kts 137°
2026-04-24 16:55 43.34925 76.53399 8792 ft 297 kts 137°
2026-04-24 16:55 43.33424 76.55354 8473 ft 296 kts 137°
2026-04-24 16:56 43.31988 76.57223 8174 ft 294 kts 137°
2026-04-24 16:56 43.30508 76.59151 7863 ft 292 kts 137°
2026-04-24 16:56 43.29069 76.61024 7693 ft 285 kts 137°
2026-04-24 16:56 43.27634 76.62912 7569 ft 277 kts 134°
2026-04-24 16:57 43.26538 76.64992 7436 ft 269 kts 117°
2026-04-24 16:57 43.25911 76.67401 7069 ft 272 kts 102°
2026-04-24 16:57 43.25496 76.69925 6863 ft 267 kts 103°
2026-04-24 16:57 43.25083 76.72428 6358 ft 271 kts 103°
2026-04-24 16:58 43.24672 76.74906 5912 ft 266 kts 103°
2026-04-24 16:58 43.24273 76.77319 5743 ft 250 kts 103°
2026-04-24 16:58 43.23983 76.79572 5623 ft 232 kts 90°
2026-04-24 16:58 43.24241 76.81646 5520 ft 212 kts 68°
2026-04-24 16:59 43.24952 76.83337 5264 ft 198 kts 54°
2026-04-24 16:59 43.25718 76.84850 5022 ft 188 kts 54°
2026-04-24 16:59 43.27084 76.87585 4619 ft 161 kts 54°
2026-04-24 17:00 43.27703 76.88833 4439 ft 156 kts 55°
2026-04-24 17:00 43.28913 76.91266 4048 ft 153 kts 56°
2026-04-24 17:00 43.29510 76.92467 3838 ft 151 kts 56°
2026-04-24 17:01 43.30677 76.94811 3454 ft 148 kts 56°
2026-04-24 17:01 43.31230 76.95922 3260 ft 147 kts 56°
2026-04-24 17:02 43.32394 76.98237 2880 ft 147 kts 55°
2026-04-24 17:02 43.32974 76.99403 2680 ft 148 kts 57°
2026-04-24 17:02 43.33543 77.00557 2471 ft 148 kts 56°
2026-04-24 17:02 43.34122 77.01716 2306 ft 148 kts 56°
2026-04-24 17:03 43.35273 77.04020 3155 ft 143 kts 57°
2026-04-24 17:03 43.35830 77.05166 3800 ft 145 kts 56°
2026-04-24 17:03 43.36403 77.06402 4255 ft 164 kts 57°
2026-04-24 17:04 43.37038 77.07800 4600 ft 185 kts 57°
2026-04-24 17:04 43.38526 77.11119 4981 ft 235 kts 57°
2026-04-24 17:04 43.39477 77.13221 4987 ft 283 kts 57°
2026-04-24 17:05 43.40604 77.15699 5012 ft 328 kts 57°
2026-04-24 17:05 43.41889 77.18519 5014 ft 365 kts 57°
2026-04-24 17:05 43.45554 77.23101 5010 ft 339 kts 28°
2026-04-24 17:06 43.47566 77.24593 5007 ft 318 kts 20°
2026-04-24 17:06 43.51622 77.25007 5006 ft 278 kts 341°
2026-04-24 17:06 43.53305 77.23883 5007 ft 265 kts 320°
2026-04-24 17:07 43.54165 77.22732 5004 ft 256 kts 306°
2026-04-24 17:07 43.55069 77.19834 5009 ft 248 kts 276°
2026-04-24 17:07 43.54205 77.15352 5007 ft 252 kts 232°
2026-04-24 17:08 43.51433 77.12354 5006 ft 255 kts 216°
2026-04-24 17:08 43.49972 77.10961 5009 ft 255 kts 216°
2026-04-24 17:08 43.48514 77.09567 5009 ft 255 kts 216°
2026-04-24 17:09 43.45611 77.06797 5008 ft 255 kts 217°
2026-04-24 17:09 43.42692 77.04012 5009 ft 255 kts 216°
2026-04-24 17:10 43.41250 77.02633 5013 ft 255 kts 216°
2026-04-24 17:10 43.36873 76.98449 5009 ft 256 kts 216°
2026-04-24 17:11 43.32463 76.94265 5008 ft 258 kts 216°
2026-04-24 17:12 43.25974 76.94667 4194 ft 212 kts 79°